Hourly Data Report for December 29, 2017

CARBERRY CS
MANITOBA

49°54'20.900" N
99°21'26.800" W
383.50 m
5010547
71170
WZE

Download Data

Hourly Data (December 2017)
Hourly Data Report for December 29, 2017
TIME
LST
Temp Definition
°C
Dew Point Definition
°C
Rel Hum Definition
%
Precip. Amount Definition
mm

Wind Dir Definition
10's deg

Wind Spd Definition
km/h
Visibility Definition
km
Stn Press Definition
kPa
Hmdx Definition


Wind Chill Definition


Weather Definition


00:00 -27.8 -31.2 73 0.0 26 20   98.11   -40 LegendNANA
01:00 -28.7 -32.0 73 0.0 26 12   98.05   -39 LegendNANA
02:00 -29.4 -32.8 73 0.0 26 15   98.02   -41 LegendNANA
03:00 -29.7 -33.2 72 0.0 27 9   98.02   -38 LegendNANA
04:00 -29.7 -33.0 73 0.0 26 8   98.08   -38 LegendNANA
05:00 -30.4 -33.8 72 0.0 29 10   98.11   -40 LegendNANA
06:00 -30.1 -33.5 72 0.0 29 7   98.15   -37 LegendNANA
07:00 -31.5 -35.1 71 0.0 27 9   98.20   -40 LegendNANA
08:00 -31.0 -34.3 73 0.0 27 11   98.28   -41 LegendNANA
09:00 -29.6 -33.0 72 0.0 31 7   98.37   -37 LegendNANA
10:00 -28.9 -32.4 72 0.0 26 5   98.44   -34 LegendNANA
11:00 -26.8 -31.3 66 0.2 27 8   98.51   -34 LegendNANA
12:00 -25.7 -30.7 63 0.0 28 9   98.54   -33 LegendNANA
13:00 -24.7 -30.0 61 0.0 28 18   98.54   -36 LegendNANA
14:00 -24.6 -30.0 61 0.0 30 22   98.52   -37 LegendNANA
15:00 -25.2 -30.6 60 0.0 29 20   98.55   -37 LegendNANA
16:00 -26.0 -31.2 62 0.0 29 15   98.64   -36 LegendNANA
17:00 -27.9 -32.5 65 0.0 28 15   98.74   -39 LegendNANA
18:00 -29.7 -34.1 66 0.0 28 13   98.81   -40 LegendNANA
19:00 -30.6 -34.8 66 0.0 29 14   98.82   -42 LegendNANA
20:00 -31.3 -35.5 67 0.0 29 15   98.85   -43 LegendNANA
21:00 -31.7 -36.0 66 0.0 28 14   98.90   -43 LegendNANA
22:00 -32.5 -36.5 67 0.0 26 15   98.92   -44 LegendNANA
23:00 -32.9 -36.9 68 0.0 26 15   98.96   -45 LegendNANA

Notes on Data Quality.

Legend

  • E = Estimated
  • M = Missing
  • NA = Not Available*
  • [empty] = Indicates an unobserved value
Date modified: